TAI429 MSLP-SPJC

Flight info

Callsign TAI429
Flight time 3h 48m
Altitude 35000
Route ILOTI1G ILOTI UZ30 DORLA UL207 LIXAS/N0459F370 UL203 ATENO UM542 OKASO DCT CLA UV1 ATATU
Aircraft A320/M-SDE3FGHIRWY/LB1

Departure

Time 2026-05-07 13:39
Airport El Salvador International Airport Saint Óscar Arnulfo Romero y Galdámez (MSLP)

Arrival

Time 2026-05-07 17:27
Airport Jorge Chávez International Airport (SPJC)
Time Latitude Longitude Altitude Speed Heading
2026-05-07 13:01 13.44307 -89.06009 90 ft 0 kts 341°
2026-05-07 13:28 13.44288 -89.06002 91 ft 4 kts 338°
2026-05-07 13:28 13.44266 -89.05989 90 ft 4 kts 312°
2026-05-07 13:29 13.44253 -89.05967 91 ft 2 kts 282°
2026-05-07 13:29 13.44253 -89.05965 91 ft 0 kts 282°
2026-05-07 13:31 13.44253 -89.05968 91 ft 2 kts 276°
2026-05-07 13:31 13.44232 -89.05992 90 ft 6 kts 229°
2026-05-07 13:31 13.44210 -89.06021 89 ft 5 kts 236°
2026-05-07 13:32 13.44189 -89.06082 89 ft 11 kts 251°
2026-05-07 13:32 13.44165 -89.06156 90 ft 10 kts 251°
2026-05-07 13:32 13.44141 -89.06222 89 ft 9 kts 249°
2026-05-07 13:32 13.44118 -89.06283 139 ft 10 kts 249°
2026-05-07 13:33 13.44090 -89.06361 138 ft 12 kts 250°
2026-05-07 13:33 13.44051 -89.06431 138 ft 10 kts 204°
2026-05-07 13:33 13.43982 -89.06438 136 ft 13 kts 211°
2026-05-07 13:33 13.43936 -89.06533 135 ft 15 kts 249°
2026-05-07 13:34 13.43904 -89.06629 135 ft 14 kts 251°
2026-05-07 13:34 13.43845 -89.06804 132 ft 15 kts 250°
2026-05-07 13:34 13.43807 -89.06903 133 ft 14 kts 249°
2026-05-07 13:35 13.43781 -89.06974 122 ft 0 kts 249°
2026-05-07 13:35 13.43780 -89.06976 128 ft 2 kts 247°
2026-05-07 13:36 13.43751 -89.06995 122 ft 0 kts 198°
2026-05-07 13:37 13.43728 -89.07000 123 ft 7 kts 184°
2026-05-07 13:38 13.43667 -89.06979 117 ft 10 kts 158°
2026-05-07 13:38 13.43618 -89.06930 123 ft 11 kts 108°
2026-05-07 13:38 13.43642 -89.06845 123 ft 22 kts 68°
2026-05-07 13:38 13.43780 -89.06447 134 ft 92 kts 70°
2026-05-07 13:39 13.44071 -89.05639 93 ft 146 kts 69°
2026-05-07 13:39 13.44469 -89.04545 372 ft 167 kts 72°
2026-05-07 13:39 13.44602 -89.03377 992 ft 167 kts 105°
2026-05-07 13:39 13.44020 -89.02323 1368 ft 181 kts 138°
2026-05-07 13:40 13.42853 -89.01738 1566 ft 204 kts 171°
2026-05-07 13:40 13.41377 -89.01968 1752 ft 230 kts 198°
2026-05-07 13:40 13.39790 -89.02542 2041 ft 254 kts 198°
2026-05-07 13:40 13.38066 -89.03128 2569 ft 266 kts 190°
2026-05-07 13:41 13.36234 -89.02958 3262 ft 269 kts 156°
2026-05-07 13:41 13.34594 -89.02030 3998 ft 270 kts 144°
2026-05-07 13:41 13.33080 -89.00880 4800 ft 271 kts 140°
2026-05-07 13:41 13.31603 -88.99654 5570 ft 273 kts 140°
2026-05-07 13:42 13.30124 -88.98414 6314 ft 276 kts 140°
2026-05-07 13:42 13.28619 -88.97180 7014 ft 278 kts 141°
2026-05-07 13:42 13.27085 -88.95954 7717 ft 281 kts 141°
2026-05-07 13:42 13.25525 -88.94734 8404 ft 283 kts 142°
2026-05-07 13:43 13.23941 -88.93513 9091 ft 286 kts 142°
2026-05-07 13:43 13.22335 -88.92283 9775 ft 289 kts 142°
2026-05-07 13:43 13.20717 -88.91047 10386 ft 291 kts 142°
2026-05-07 13:43 13.19084 -88.89801 10980 ft 296 kts 142°
2026-05-07 13:44 13.17371 -88.88493 11101 ft 317 kts 142°
2026-05-07 13:44 13.15541 -88.87094 11227 ft 337 kts 142°
2026-05-07 13:44 13.13618 -88.85623 11480 ft 350 kts 142°
2026-05-07 13:44 13.11682 -88.84146 11998 ft 353 kts 141°
2026-05-07 13:45 13.09705 -88.82637 12570 ft 355 kts 141°
2026-05-07 13:45 13.07718 -88.81119 13132 ft 357 kts 141°
2026-05-07 13:45 13.05719 -88.79593 13711 ft 359 kts 141°
2026-05-07 13:45 13.03705 -88.78057 14197 ft 362 kts 141°
2026-05-07 13:46 13.01680 -88.76512 14678 ft 364 kts 141°
2026-05-07 13:46 12.99639 -88.74956 15124 ft 367 kts 141°
2026-05-07 13:46 12.97579 -88.73387 15583 ft 370 kts 141°
2026-05-07 13:46 12.95506 -88.71808 16028 ft 373 kts 141°
2026-05-07 13:47 12.93420 -88.70218 16461 ft 375 kts 141°
2026-05-07 13:47 12.91316 -88.68614 16905 ft 378 kts 141°
2026-05-07 13:47 12.89157 -88.67053 17331 ft 382 kts 147°
2026-05-07 13:47 12.86815 -88.65727 17755 ft 386 kts 149°
2026-05-07 13:48 12.84447 -88.64411 18178 ft 389 kts 149°
2026-05-07 13:48 12.82064 -88.63090 18541 ft 391 kts 149°
2026-05-07 13:48 12.79663 -88.61757 18914 ft 393 kts 149°
2026-05-07 13:48 12.77256 -88.60422 19283 ft 395 kts 149°
2026-05-07 13:49 12.74821 -88.59105 19676 ft 396 kts 150°
2026-05-07 13:49 12.72360 -88.57822 20063 ft 398 kts 151°
2026-05-07 13:49 12.69876 -88.56552 20425 ft 399 kts 151°
2026-05-07 13:49 12.67412 -88.55300 20778 ft 401 kts 151°
2026-05-07 13:50 12.64906 -88.54025 21128 ft 403 kts 151°
2026-05-07 13:50 12.62388 -88.52740 21472 ft 405 kts 151°
2026-05-07 13:50 12.59867 -88.51447 21814 ft 407 kts 150°
2026-05-07 13:50 12.57331 -88.50141 22153 ft 408 kts 150°
2026-05-07 13:51 12.54792 -88.48828 22486 ft 410 kts 150°
2026-05-07 13:51 12.52235 -88.47505 22810 ft 412 kts 150°
2026-05-07 13:51 12.49667 -88.46179 23112 ft 415 kts 150°
2026-05-07 13:51 12.47085 -88.44847 23419 ft 417 kts 150°
2026-05-07 13:52 12.44492 -88.43510 23690 ft 419 kts 150°
2026-05-07 13:52 12.41877 -88.42164 23942 ft 421 kts 150°
2026-05-07 13:52 12.39259 -88.40818 24196 ft 423 kts 150°
2026-05-07 13:52 12.36627 -88.39462 24437 ft 425 kts 150°
2026-05-07 13:53 12.33980 -88.38097 24680 ft 426 kts 150°
2026-05-07 13:53 12.31322 -88.36728 24915 ft 428 kts 151°
2026-05-07 13:53 12.28655 -88.35357 25151 ft 430 kts 151°
2026-05-07 13:53 12.25972 -88.33977 25383 ft 432 kts 151°
2026-05-07 13:54 12.23284 -88.32594 25611 ft 434 kts 151°
2026-05-07 13:54 12.20582 -88.31201 25843 ft 436 kts 151°
2026-05-07 13:54 12.17869 -88.29804 26073 ft 438 kts 151°
2026-05-07 13:54 12.15144 -88.28402 26304 ft 439 kts 151°
2026-05-07 13:55 12.12406 -88.26996 26529 ft 441 kts 151°
2026-05-07 13:55 12.10582 -88.26059 26681 ft 443 kts 151°
2026-05-07 13:55 12.07828 -88.24644 26905 ft 444 kts 151°
2026-05-07 13:55 12.05061 -88.23222 27123 ft 446 kts 151°
2026-05-07 13:56 12.01377 -88.21331 27405 ft 449 kts 151°
2026-05-07 13:56 11.98586 -88.19897 27607 ft 450 kts 151°
2026-05-07 13:56 11.95780 -88.18458 27813 ft 452 kts 151°
2026-05-07 13:56 11.92964 -88.17014 28013 ft 454 kts 151°
2026-05-07 13:57 11.91057 -88.16035 28132 ft 455 kts 151°
2026-05-07 13:57 11.88224 -88.14582 28344 ft 456 kts 152°
2026-05-07 13:57 11.85379 -88.13121 28534 ft 458 kts 152°
2026-05-07 13:57 11.82530 -88.11658 28722 ft 460 kts 152°
2026-05-07 13:58 11.79668 -88.10189 28904 ft 461 kts 152°
2026-05-07 13:58 11.76834 -88.08735 29085 ft 463 kts 151°
2026-05-07 13:58 11.73950 -88.07257 29262 ft 464 kts 152°
2026-05-07 13:58 11.71054 -88.05775 29446 ft 466 kts 152°
2026-05-07 13:59 11.68151 -88.04290 29645 ft 467 kts 152°
2026-05-07 13:59 11.65246 -88.02802 29914 ft 466 kts 152°
2026-05-07 13:59 11.62343 -88.01315 30147 ft 466 kts 152°
2026-05-07 13:59 11.59447 -87.99832 30357 ft 466 kts 152°
2026-05-07 14:00 11.56539 -87.98342 30562 ft 466 kts 152°
2026-05-07 14:00 11.53676 -87.96876 30768 ft 466 kts 152°
2026-05-07 14:00 11.50777 -87.95389 30963 ft 467 kts 152°
2026-05-07 14:00 11.47875 -87.93903 31170 ft 467 kts 152°
2026-05-07 14:01 11.44972 -87.92419 31366 ft 467 kts 152°
2026-05-07 14:01 11.42070 -87.90936 31573 ft 467 kts 152°
2026-05-07 14:01 11.39158 -87.89449 31786 ft 467 kts 152°
2026-05-07 14:01 11.36241 -87.87965 31975 ft 468 kts 152°
2026-05-07 14:02 11.33332 -87.86484 32173 ft 468 kts 152°
2026-05-07 14:02 11.30412 -87.84995 32352 ft 469 kts 152°
2026-05-07 14:02 11.27496 -87.83506 32539 ft 470 kts 152°
2026-05-07 14:02 11.24569 -87.82009 32721 ft 471 kts 152°
2026-05-07 14:03 11.21636 -87.80514 32891 ft 472 kts 153°
2026-05-07 14:03 11.18698 -87.79018 33085 ft 472 kts 153°
2026-05-07 14:03 11.15758 -87.77523 33258 ft 473 kts 153°
2026-05-07 14:03 11.12814 -87.76021 33479 ft 473 kts 153°
2026-05-07 14:04 11.09871 -87.74516 33679 ft 474 kts 152°
2026-05-07 14:04 11.06922 -87.73007 33865 ft 475 kts 153°
2026-05-07 14:04 11.03998 -87.71514 34008 ft 476 kts 152°
2026-05-07 14:04 11.01032 -87.70000 34182 ft 476 kts 153°
2026-05-07 14:05 10.98075 -87.68493 34447 ft 474 kts 153°
2026-05-07 14:05 10.95126 -87.66995 34702 ft 473 kts 153°
2026-05-07 14:05 10.92186 -87.65499 34895 ft 472 kts 153°
2026-05-07 14:06 10.86300 -87.62507 34953 ft 473 kts 153°
2026-05-07 14:06 10.80412 -87.59507 34951 ft 473 kts 153°
2026-05-07 14:07 10.74529 -87.56518 34953 ft 472 kts 153°
2026-05-07 14:07 10.68695 -87.53549 34950 ft 472 kts 153°
2026-05-07 14:08 10.62809 -87.50561 34946 ft 473 kts 153°
2026-05-07 14:08 10.56917 -87.47568 34950 ft 473 kts 153°
2026-05-07 14:09 10.51030 -87.44578 34953 ft 473 kts 153°
2026-05-07 14:09 10.45140 -87.41583 34948 ft 473 kts 153°
2026-05-07 14:10 10.39253 -87.38594 34943 ft 473 kts 153°
2026-05-07 14:10 10.33362 -87.35612 34947 ft 473 kts 153°
2026-05-07 14:11 10.27465 -87.32631 34950 ft 473 kts 153°
2026-05-07 14:11 10.21618 -87.29659 34946 ft 473 kts 153°
2026-05-07 14:12 10.15735 -87.26679 34960 ft 472 kts 153°
2026-05-07 14:12 10.09865 -87.23712 34970 ft 470 kts 153°
2026-05-07 14:13 10.04022 -87.20755 34968 ft 469 kts 153°
2026-05-07 14:13 9.98188 -87.17805 34966 ft 468 kts 153°
2026-05-07 14:14 9.92360 -87.14866 34965 ft 467 kts 153°
2026-05-07 14:14 9.86541 -87.11924 34960 ft 467 kts 153°
2026-05-07 14:15 9.80720 -87.08988 34958 ft 467 kts 153°
2026-05-07 14:15 9.74927 -87.06055 34977 ft 464 kts 153°
2026-05-07 14:16 9.69166 -87.03141 34978 ft 462 kts 153°
2026-05-07 14:16 9.63413 -87.00246 34973 ft 461 kts 153°
2026-05-07 14:17 9.57709 -86.97382 34966 ft 460 kts 153°
2026-05-07 14:17 9.51985 -86.94493 34960 ft 460 kts 153°
2026-05-07 14:18 9.46263 -86.91598 34952 ft 460 kts 153°
2026-05-07 14:18 9.40532 -86.88705 34939 ft 460 kts 153°
2026-05-07 14:19 9.34784 -86.85819 34941 ft 461 kts 153°
2026-05-07 14:19 9.29031 -86.82927 34940 ft 462 kts 153°
2026-05-07 14:20 9.23313 -86.80049 34935 ft 462 kts 153°
2026-05-07 14:20 9.17557 -86.77146 34937 ft 462 kts 153°
2026-05-07 14:21 9.11799 -86.74249 34942 ft 462 kts 153°
2026-05-07 14:21 9.06041 -86.71351 34951 ft 462 kts 153°
2026-05-07 14:22 9.00290 -86.68464 34954 ft 461 kts 153°
2026-05-07 14:22 8.94540 -86.65572 34955 ft 461 kts 153°
2026-05-07 14:23 8.88799 -86.62694 34958 ft 460 kts 153°
2026-05-07 14:23 8.83061 -86.59817 34956 ft 460 kts 153°
2026-05-07 14:24 8.77325 -86.56943 34953 ft 460 kts 153°
2026-05-07 14:24 8.71593 -86.54070 34947 ft 460 kts 153°
2026-05-07 14:25 8.65848 -86.51191 34938 ft 461 kts 153°
2026-05-07 14:25 8.60102 -86.48300 34936 ft 462 kts 153°
2026-05-07 14:26 8.54351 -86.45408 34941 ft 462 kts 153°
2026-05-07 14:26 8.48631 -86.42541 34941 ft 462 kts 154°
2026-05-07 14:27 8.42866 -86.39663 34941 ft 462 kts 154°
2026-05-07 14:27 8.37102 -86.36788 34942 ft 462 kts 154°
2026-05-07 14:28 8.31333 -86.33897 34944 ft 462 kts 153°
2026-05-07 14:28 8.25569 -86.31006 34944 ft 462 kts 153°
2026-05-07 14:29 8.19806 -86.28120 34941 ft 462 kts 153°
2026-05-07 14:29 8.14041 -86.25243 34945 ft 462 kts 153°
2026-05-07 14:30 8.08270 -86.22364 34946 ft 462 kts 153°
2026-05-07 14:30 8.02506 -86.19481 34948 ft 462 kts 153°
2026-05-07 14:31 7.96784 -86.16620 34947 ft 462 kts 153°
2026-05-07 14:31 7.91016 -86.13745 34949 ft 462 kts 153°
2026-05-07 14:32 7.85254 -86.10876 34954 ft 462 kts 153°
2026-05-07 14:32 7.79496 -86.07998 34953 ft 461 kts 153°
2026-05-07 14:33 7.73741 -86.05120 34948 ft 461 kts 153°
2026-05-07 14:33 7.67989 -86.02252 34947 ft 461 kts 153°
2026-05-07 14:34 7.62234 -85.99385 34948 ft 461 kts 153°
2026-05-07 14:34 7.56517 -85.96535 34954 ft 461 kts 153°
2026-05-07 14:35 7.50763 -85.93673 34951 ft 461 kts 153°
2026-05-07 14:35 7.44974 -85.90790 34951 ft 461 kts 153°
2026-05-07 14:36 7.39260 -85.87943 34952 ft 461 kts 153°
2026-05-07 14:36 7.33514 -85.85074 34951 ft 461 kts 153°
2026-05-07 14:37 7.27759 -85.82208 34953 ft 461 kts 153°
2026-05-07 14:37 7.19131 -85.77927 34951 ft 461 kts 153°
2026-05-07 14:38 7.13384 -85.75073 34949 ft 461 kts 153°
2026-05-07 14:38 7.07636 -85.72206 34949 ft 461 kts 153°
2026-05-07 14:39 7.01888 -85.69347 34949 ft 461 kts 153°
2026-05-07 14:39 6.96142 -85.66493 34952 ft 461 kts 153°
2026-05-07 14:40 6.90395 -85.63633 34955 ft 461 kts 153°
2026-05-07 14:40 6.84648 -85.60781 34955 ft 461 kts 153°
2026-05-07 14:41 6.78895 -85.57932 34950 ft 461 kts 153°
2026-05-07 14:41 6.73141 -85.55078 34949 ft 461 kts 153°
2026-05-07 14:42 6.67422 -85.52237 34953 ft 461 kts 153°
2026-05-07 14:42 6.61666 -85.49379 34953 ft 461 kts 153°
2026-05-07 14:43 6.55904 -85.46523 34953 ft 461 kts 153°
2026-05-07 14:43 6.50146 -85.43671 34953 ft 461 kts 153°
2026-05-07 14:44 6.44382 -85.40816 34951 ft 462 kts 153°
2026-05-07 14:44 6.38611 -85.37951 34947 ft 462 kts 153°
2026-05-07 14:45 6.32838 -85.35087 34951 ft 463 kts 153°
2026-05-07 14:45 6.27056 -85.32222 34951 ft 463 kts 153°
2026-05-07 14:46 6.22252 -85.29840 34951 ft 463 kts 153°
2026-05-07 14:46 6.16467 -85.26982 34952 ft 463 kts 153°
2026-05-07 14:47 6.10675 -85.24121 34954 ft 464 kts 153°
2026-05-07 14:47 6.04886 -85.21258 34955 ft 464 kts 153°
2026-05-07 14:48 5.99095 -85.18388 34954 ft 464 kts 153°
2026-05-07 14:48 5.93300 -85.15520 34953 ft 465 kts 153°
2026-05-07 14:49 5.87493 -85.12645 34951 ft 465 kts 153°
2026-05-07 14:49 5.81728 -85.09793 34952 ft 465 kts 153°
2026-05-07 14:50 5.75916 -85.06918 34956 ft 465 kts 153°
2026-05-07 14:50 5.70110 -85.04054 34954 ft 465 kts 153°
2026-05-07 14:51 5.64297 -85.01179 34956 ft 465 kts 153°
2026-05-07 14:51 5.58488 -84.98310 34959 ft 465 kts 153°
2026-05-07 14:52 5.52679 -84.95449 34955 ft 465 kts 153°
2026-05-07 14:52 5.46905 -84.92599 34955 ft 465 kts 153°
2026-05-07 14:53 5.41095 -84.89726 34957 ft 465 kts 153°
2026-05-07 14:53 5.35282 -84.86857 34959 ft 465 kts 153°
2026-05-07 14:54 5.29473 -84.83989 34957 ft 465 kts 153°
2026-05-07 14:54 5.23656 -84.81122 34954 ft 466 kts 153°
2026-05-07 14:55 5.17828 -84.78253 34949 ft 466 kts 153°
2026-05-07 14:55 5.11999 -84.75374 34951 ft 467 kts 153°
2026-05-07 14:56 5.06201 -84.72514 34954 ft 467 kts 153°
2026-05-07 14:56 5.00369 -84.69638 34955 ft 467 kts 153°
2026-05-07 14:57 4.94537 -84.66759 34955 ft 467 kts 153°
2026-05-07 14:57 4.88698 -84.63889 34961 ft 467 kts 153°
2026-05-07 14:58 4.82868 -84.61018 34962 ft 466 kts 153°
2026-05-07 14:58 4.77043 -84.58141 34961 ft 466 kts 153°
2026-05-07 14:59 4.71224 -84.55275 34961 ft 466 kts 153°
2026-05-07 14:59 4.65436 -84.52433 34959 ft 466 kts 153°
2026-05-07 15:00 4.59616 -84.49572 34957 ft 466 kts 153°
2026-05-07 15:00 4.53798 -84.46708 34961 ft 465 kts 153°
2026-05-07 15:01 4.47990 -84.43839 34963 ft 465 kts 153°
2026-05-07 15:01 4.42185 -84.40979 34963 ft 464 kts 153°
2026-05-07 15:02 4.36384 -84.38130 34962 ft 464 kts 153°
2026-05-07 15:02 4.30588 -84.35284 34961 ft 464 kts 153°
2026-05-07 15:03 4.24830 -84.32450 34959 ft 464 kts 153°
2026-05-07 15:03 4.19034 -84.29597 34957 ft 464 kts 153°
2026-05-07 15:04 4.13235 -84.26753 34953 ft 464 kts 153°
2026-05-07 15:04 4.07430 -84.23906 34952 ft 464 kts 153°
2026-05-07 15:05 4.01625 -84.21056 34951 ft 465 kts 153°
2026-05-07 15:05 3.95820 -84.18202 34953 ft 465 kts 153°
2026-05-07 15:06 3.90015 -84.15346 34952 ft 465 kts 153°
2026-05-07 15:06 3.84210 -84.12494 34952 ft 465 kts 153°
2026-05-07 15:07 3.78432 -84.09661 34958 ft 465 kts 153°
2026-05-07 15:07 3.72622 -84.06805 34950 ft 466 kts 152°
2026-05-07 15:08 3.66793 -84.03940 34941 ft 466 kts 152°
2026-05-07 15:08 3.60956 -84.01079 34943 ft 467 kts 152°
2026-05-07 15:09 3.55119 -83.98214 34944 ft 467 kts 152°
2026-05-07 15:09 3.49322 -83.95368 34945 ft 467 kts 152°
2026-05-07 15:10 3.43485 -83.92504 34949 ft 467 kts 152°
2026-05-07 15:10 3.37645 -83.89634 34949 ft 467 kts 152°
2026-05-07 15:11 3.31796 -83.86768 34944 ft 468 kts 152°
2026-05-07 15:11 3.25939 -83.83897 34944 ft 468 kts 152°
2026-05-07 15:12 3.20088 -83.81027 34945 ft 469 kts 152°
2026-05-07 15:12 3.14277 -83.78170 34949 ft 469 kts 152°
2026-05-07 15:13 3.08417 -83.75289 34947 ft 469 kts 152°
2026-05-07 15:13 3.02558 -83.72420 34951 ft 469 kts 152°
2026-05-07 15:14 2.96695 -83.69559 34952 ft 469 kts 152°
2026-05-07 15:14 2.90824 -83.66688 34952 ft 469 kts 152°
2026-05-07 15:15 2.84957 -83.63810 34949 ft 470 kts 152°
2026-05-07 15:15 2.79090 -83.60929 34948 ft 470 kts 152°
2026-05-07 15:16 2.73224 -83.58050 34948 ft 470 kts 152°
2026-05-07 15:16 2.67352 -83.55175 34948 ft 470 kts 152°
2026-05-07 15:17 2.61515 -83.52319 34954 ft 470 kts 153°
2026-05-07 15:17 2.55646 -83.49452 34960 ft 469 kts 153°
2026-05-07 15:18 2.49777 -83.46580 34958 ft 469 kts 152°
2026-05-07 15:18 2.43922 -83.43713 34957 ft 469 kts 153°
2026-05-07 15:19 2.38067 -83.40845 34958 ft 468 kts 152°
2026-05-07 15:19 2.32213 -83.37976 34958 ft 468 kts 152°
2026-05-07 15:20 2.26361 -83.35105 34961 ft 468 kts 152°
2026-05-07 15:20 2.20503 -83.32237 34968 ft 468 kts 152°
2026-05-07 15:21 2.14660 -83.29380 34968 ft 467 kts 152°
2026-05-07 15:21 2.08820 -83.26529 34966 ft 467 kts 152°
2026-05-07 15:22 2.03026 -83.23692 34964 ft 467 kts 152°
2026-05-07 15:22 1.97196 -83.20834 34962 ft 467 kts 152°
2026-05-07 15:23 1.91364 -83.17975 34962 ft 466 kts 152°
2026-05-07 15:23 1.85534 -83.15127 34962 ft 467 kts 153°
2026-05-07 15:24 1.79700 -83.12278 34967 ft 466 kts 153°
2026-05-07 15:24 1.73870 -83.09423 34966 ft 466 kts 153°
2026-05-07 15:25 1.68050 -83.06572 34967 ft 466 kts 153°
2026-05-07 15:25 1.62270 -83.03751 34964 ft 466 kts 153°
2026-05-07 15:26 1.56456 -83.00905 34963 ft 465 kts 153°
2026-05-07 15:26 1.50635 -82.98058 34967 ft 465 kts 152°
2026-05-07 15:27 1.44818 -82.95213 34972 ft 465 kts 153°
2026-05-07 15:27 1.38836 -82.92791 34972 ft 465 kts 162°
2026-05-07 15:28 1.32654 -82.90891 34971 ft 465 kts 162°
2026-05-07 15:28 1.26472 -82.88992 34970 ft 464 kts 162°
2026-05-07 15:29 1.20295 -82.87093 34965 ft 464 kts 162°
2026-05-07 15:29 1.14116 -82.85193 34964 ft 464 kts 162°
2026-05-07 15:30 1.07936 -82.83290 34950 ft 465 kts 162°
2026-05-07 15:30 1.01783 -82.81394 34946 ft 466 kts 162°
2026-05-07 15:31 0.95577 -82.79483 34954 ft 467 kts 162°
2026-05-07 15:31 0.89372 -82.77575 34957 ft 467 kts 162°
2026-05-07 15:32 0.83167 -82.75670 34966 ft 466 kts 162°
2026-05-07 15:32 0.76968 -82.73758 34969 ft 466 kts 162°
2026-05-07 15:33 0.70776 -82.71854 34973 ft 465 kts 162°
2026-05-07 15:33 0.64596 -82.69961 34974 ft 464 kts 162°
2026-05-07 15:34 0.58432 -82.68059 34973 ft 464 kts 162°
2026-05-07 15:34 0.52262 -82.66157 34969 ft 463 kts 162°
2026-05-07 15:35 0.46101 -82.64258 34969 ft 463 kts 162°
2026-05-07 15:35 0.39936 -82.62356 34968 ft 463 kts 162°
2026-05-07 15:36 0.33816 -82.60476 34960 ft 463 kts 163°
2026-05-07 15:36 0.27652 -82.58582 34957 ft 464 kts 163°
2026-05-07 15:37 0.21483 -82.56684 34954 ft 464 kts 163°
2026-05-07 15:37 0.16303 -82.55085 35083 ft 466 kts 163°
2026-05-07 15:38 0.13247 -82.54140 35295 ft 465 kts 163°
2026-05-07 15:38 0.10152 -82.53186 35494 ft 465 kts 163°
2026-05-07 15:38 0.07057 -82.52239 35707 ft 465 kts 163°
2026-05-07 15:38 0.03964 -82.51292 35882 ft 465 kts 163°
2026-05-07 15:39 0.00862 -82.50342 36056 ft 466 kts 163°
2026-05-07 15:39 -0.02237 -82.49391 36224 ft 466 kts 163°
2026-05-07 15:39 -0.05351 -82.48435 36346 ft 468 kts 163°
2026-05-07 15:39 -0.08460 -82.47478 36523 ft 468 kts 163°
2026-05-07 15:40 -0.11574 -82.46517 36687 ft 468 kts 163°
2026-05-07 15:40 -0.14688 -82.45556 36879 ft 467 kts 163°
2026-05-07 15:40 -0.20905 -82.43644 36964 ft 468 kts 163°
2026-05-07 15:41 -0.27128 -82.41727 36967 ft 468 kts 163°
2026-05-07 15:41 -0.33349 -82.39809 36965 ft 467 kts 163°
2026-05-07 15:42 -0.39547 -82.37902 36963 ft 464 kts 163°
2026-05-07 15:42 -0.45722 -82.36003 36962 ft 465 kts 163°
2026-05-07 15:43 -0.51875 -82.34114 36964 ft 465 kts 163°
2026-05-07 15:43 -0.58066 -82.32215 36967 ft 465 kts 163°
2026-05-07 15:44 -0.64253 -82.30309 36968 ft 465 kts 163°
2026-05-07 15:44 -0.70439 -82.28400 36969 ft 465 kts 163°
2026-05-07 15:45 -0.76623 -82.26496 36964 ft 465 kts 163°
2026-05-07 15:45 -0.82814 -82.24592 36961 ft 466 kts 163°
2026-05-07 15:46 -0.92107 -82.21738 36956 ft 466 kts 163°
2026-05-07 15:47 -0.98300 -82.19831 36958 ft 466 kts 163°
2026-05-07 15:47 -1.04502 -82.17917 36961 ft 466 kts 163°
2026-05-07 15:48 -1.10700 -82.16013 36962 ft 466 kts 163°
2026-05-07 15:48 -1.16906 -82.14100 36961 ft 466 kts 163°
2026-05-07 15:49 -1.23066 -82.12202 36959 ft 467 kts 163°
2026-05-07 15:49 -1.29281 -82.10295 36954 ft 467 kts 163°
2026-05-07 15:50 -1.35496 -82.08388 36958 ft 467 kts 163°
2026-05-07 15:50 -1.41710 -82.06478 36961 ft 467 kts 163°
2026-05-07 15:51 -1.47933 -82.04558 36960 ft 467 kts 163°
2026-05-07 15:51 -1.54148 -82.02635 36954 ft 468 kts 163°
2026-05-07 15:52 -1.60368 -82.00723 36954 ft 468 kts 163°
2026-05-07 15:52 -1.66597 -81.98811 36956 ft 468 kts 163°
2026-05-07 15:53 -1.72829 -81.96894 36956 ft 468 kts 163°
2026-05-07 15:53 -1.79057 -81.94972 36958 ft 469 kts 163°
2026-05-07 15:54 -1.85292 -81.93050 36957 ft 469 kts 163°
2026-05-07 15:54 -1.91525 -81.91132 36957 ft 469 kts 164°
2026-05-07 15:55 -1.97720 -81.89232 36957 ft 469 kts 164°
2026-05-07 15:55 -2.03956 -81.87308 36958 ft 469 kts 164°
2026-05-07 15:56 -2.10300 -81.85848 36957 ft 468 kts 169°
2026-05-07 15:56 -2.16679 -81.84505 36955 ft 468 kts 169°
2026-05-07 15:57 -2.23051 -81.83157 36955 ft 468 kts 169°
2026-05-07 15:57 -2.29426 -81.81799 36953 ft 468 kts 169°
2026-05-07 15:58 -2.35811 -81.80451 36958 ft 468 kts 169°
2026-05-07 15:58 -2.42194 -81.79102 36956 ft 469 kts 169°
2026-05-07 15:59 -2.48571 -81.77754 36954 ft 469 kts 169°
2026-05-07 15:59 -2.54957 -81.76395 36957 ft 469 kts 169°
2026-05-07 16:00 -2.61332 -81.75032 36956 ft 469 kts 169°
2026-05-07 16:00 -2.67676 -81.73679 36960 ft 468 kts 170°
2026-05-07 16:01 -2.74053 -81.72330 36962 ft 468 kts 170°
2026-05-07 16:01 -2.80425 -81.70994 36962 ft 468 kts 170°
2026-05-07 16:02 -2.86803 -81.69644 36958 ft 468 kts 169°
2026-05-07 16:02 -2.93166 -81.68285 36955 ft 468 kts 169°
2026-05-07 16:03 -2.99536 -81.66926 36957 ft 468 kts 169°
2026-05-07 16:03 -3.05898 -81.65572 36954 ft 468 kts 170°
2026-05-07 16:04 -3.12265 -81.64225 36956 ft 467 kts 170°
2026-05-07 16:04 -3.18591 -81.62888 36958 ft 467 kts 170°
2026-05-07 16:05 -3.24950 -81.61540 36960 ft 466 kts 170°
2026-05-07 16:05 -3.31300 -81.60193 36959 ft 466 kts 170°
2026-05-07 16:06 -3.37652 -81.58837 36955 ft 466 kts 170°
2026-05-07 16:06 -3.43935 -81.57383 36957 ft 467 kts 167°
2026-05-07 16:07 -3.50189 -81.55598 36956 ft 467 kts 166°
2026-05-07 16:07 -3.56425 -81.53746 36955 ft 467 kts 166°
2026-05-07 16:08 -3.62679 -81.51958 36955 ft 467 kts 166°
2026-05-07 16:08 -3.68941 -81.50219 36954 ft 467 kts 167°
2026-05-07 16:09 -3.75199 -81.48482 36951 ft 467 kts 167°
2026-05-07 16:09 -3.81457 -81.46734 36955 ft 467 kts 167°
2026-05-07 16:10 -3.87715 -81.44983 36952 ft 467 kts 167°
2026-05-07 16:10 -3.93966 -81.43224 36952 ft 467 kts 167°
2026-05-07 16:11 -4.00226 -81.41469 36952 ft 467 kts 167°
2026-05-07 16:11 -4.06447 -81.39727 36951 ft 467 kts 167°
2026-05-07 16:12 -4.12707 -81.37972 36951 ft 467 kts 167°
2026-05-07 16:12 -4.18967 -81.36209 36951 ft 467 kts 167°
2026-05-07 16:13 -4.25228 -81.34448 36949 ft 467 kts 167°
2026-05-07 16:13 -4.31480 -81.32699 36950 ft 467 kts 167°
2026-05-07 16:14 -4.37736 -81.30947 36953 ft 467 kts 167°
2026-05-07 16:14 -4.43993 -81.29198 36954 ft 467 kts 167°
2026-05-07 16:15 -4.50247 -81.27438 36957 ft 467 kts 167°
2026-05-07 16:15 -4.56502 -81.25672 36962 ft 467 kts 166°
2026-05-07 16:16 -4.62429 -81.23051 36960 ft 470 kts 156°
2026-05-07 16:16 -4.68283 -81.20117 36959 ft 470 kts 156°
2026-05-07 16:17 -4.74139 -81.17187 36961 ft 470 kts 156°
2026-05-07 16:17 -4.79992 -81.14258 36965 ft 470 kts 156°
2026-05-07 16:18 -4.85847 -81.11327 36965 ft 470 kts 156°
2026-05-07 16:18 -4.91702 -81.08394 36974 ft 470 kts 156°
2026-05-07 16:19 -4.97564 -81.05466 36980 ft 470 kts 156°
2026-05-07 16:19 -5.03420 -81.02541 36980 ft 470 kts 156°
2026-05-07 16:20 -5.09277 -80.99608 36977 ft 470 kts 156°
2026-05-07 16:20 -5.15064 -80.96530 36980 ft 473 kts 149°
2026-05-07 16:21 -5.20406 -80.92646 36977 ft 474 kts 147°
2026-05-07 16:21 -5.25714 -80.88773 36974 ft 474 kts 147°
2026-05-07 16:22 -5.31059 -80.84886 36973 ft 475 kts 147°
2026-05-07 16:22 -5.36408 -80.80992 36971 ft 475 kts 147°
2026-05-07 16:23 -5.41751 -80.77085 36974 ft 475 kts 147°
2026-05-07 16:23 -5.47105 -80.73170 36975 ft 476 kts 147°
2026-05-07 16:24 -5.52461 -80.69261 36979 ft 476 kts 147°
2026-05-07 16:24 -5.57815 -80.65352 36981 ft 476 kts 147°
2026-05-07 16:25 -5.63162 -80.61439 36982 ft 476 kts 147°
2026-05-07 16:25 -5.68480 -80.57554 36987 ft 476 kts 147°
2026-05-07 16:26 -5.73835 -80.53636 36986 ft 476 kts 147°
2026-05-07 16:26 -5.78284 -80.50387 36987 ft 475 kts 147°
2026-05-07 16:27 -5.83633 -80.46475 36988 ft 475 kts 147°
2026-05-07 16:27 -5.88979 -80.42567 36988 ft 475 kts 147°
2026-05-07 16:28 -5.94326 -80.38663 36986 ft 475 kts 147°
2026-05-07 16:28 -5.99668 -80.34753 36986 ft 475 kts 147°
2026-05-07 16:29 -6.05012 -80.30840 36983 ft 475 kts 147°
2026-05-07 16:29 -6.10349 -80.26932 36984 ft 475 kts 147°
2026-05-07 16:30 -6.15656 -80.23048 36988 ft 475 kts 147°
2026-05-07 16:30 -6.20993 -80.19130 36987 ft 475 kts 147°
2026-05-07 16:31 -6.26328 -80.15216 36980 ft 475 kts 147°
2026-05-07 16:31 -6.31667 -80.11302 36983 ft 475 kts 147°
2026-05-07 16:32 -6.37008 -80.07386 36979 ft 475 kts 147°
2026-05-07 16:32 -6.42351 -80.03465 36979 ft 476 kts 147°
2026-05-07 16:33 -6.47698 -79.99543 36980 ft 476 kts 147°
2026-05-07 16:33 -6.53044 -79.95619 36987 ft 476 kts 147°
2026-05-07 16:34 -6.58400 -79.91692 36995 ft 476 kts 147°
2026-05-07 16:34 -6.63751 -79.87770 37003 ft 476 kts 147°
2026-05-07 16:35 -6.69071 -79.83863 37010 ft 476 kts 147°
2026-05-07 16:35 -6.74671 -79.80388 37018 ft 471 kts 157°
2026-05-07 16:36 -6.80514 -79.77387 37007 ft 471 kts 157°
2026-05-07 16:36 -6.86363 -79.74387 37005 ft 472 kts 157°
2026-05-07 16:37 -6.92206 -79.71381 37002 ft 472 kts 157°
2026-05-07 16:37 -6.98051 -79.68371 36989 ft 472 kts 157°
2026-05-07 16:38 -7.03898 -79.65367 36980 ft 471 kts 157°
2026-05-07 16:38 -7.09700 -79.62380 36982 ft 471 kts 157°
2026-05-07 16:39 -7.15538 -79.59365 36980 ft 472 kts 157°
2026-05-07 16:39 -7.21382 -79.56353 36986 ft 472 kts 157°
2026-05-07 16:40 -7.27237 -79.53339 36975 ft 472 kts 157°
2026-05-07 16:40 -7.33087 -79.50329 36978 ft 472 kts 157°
2026-05-07 16:41 -7.38936 -79.47315 36967 ft 472 kts 157°
2026-05-07 16:41 -7.44786 -79.44300 36975 ft 472 kts 157°
2026-05-07 16:42 -7.50601 -79.41302 36994 ft 472 kts 157°
2026-05-07 16:42 -7.56453 -79.38288 36987 ft 472 kts 157°
2026-05-07 16:43 -7.62301 -79.35267 36992 ft 472 kts 157°
2026-05-07 16:43 -7.68152 -79.32249 36991 ft 472 kts 157°
2026-05-07 16:44 -7.74011 -79.29231 37001 ft 473 kts 157°
2026-05-07 16:44 -7.79866 -79.26194 37002 ft 473 kts 157°
2026-05-07 16:45 -7.85724 -79.23161 37000 ft 473 kts 157°
2026-05-07 16:45 -7.91574 -79.20133 37004 ft 472 kts 157°
2026-05-07 16:46 -7.97427 -79.17109 37003 ft 472 kts 157°
2026-05-07 16:46 -8.03239 -79.14106 37011 ft 472 kts 157°
2026-05-07 16:47 -8.09088 -79.11081 37000 ft 472 kts 157°
2026-05-07 16:47 -8.14885 -79.07941 37005 ft 473 kts 155°
2026-05-07 16:48 -8.20632 -79.04684 37010 ft 474 kts 155°
2026-05-07 16:48 -8.26384 -79.01435 37001 ft 474 kts 155°
2026-05-07 16:49 -8.32159 -78.98217 37040 ft 474 kts 155°
2026-05-07 16:49 -8.37945 -78.95015 37040 ft 475 kts 155°
2026-05-07 16:50 -8.43702 -78.91823 37027 ft 475 kts 155°
2026-05-07 16:50 -8.49488 -78.88612 37010 ft 475 kts 155°
2026-05-07 16:51 -8.55272 -78.85385 37014 ft 474 kts 155°
2026-05-07 16:51 -8.61052 -78.82157 37069 ft 475 kts 155°
2026-05-07 16:52 -8.66838 -78.78930 37035 ft 475 kts 155°
2026-05-07 16:52 -8.72628 -78.75701 37035 ft 475 kts 155°
2026-05-07 16:53 -8.78426 -78.72476 37011 ft 475 kts 155°
2026-05-07 16:53 -8.84215 -78.69250 37018 ft 475 kts 155°
2026-05-07 16:54 -8.89956 -78.66037 37055 ft 475 kts 155°
2026-05-07 16:54 -8.95741 -78.62807 37043 ft 475 kts 155°
2026-05-07 16:55 -9.01530 -78.59578 37035 ft 475 kts 155°
2026-05-07 16:55 -9.07322 -78.56342 37014 ft 475 kts 155°
2026-05-07 16:56 -9.13108 -78.53106 37015 ft 475 kts 155°
2026-05-07 16:56 -9.21916 -78.48557 37012 ft 473 kts 159°
2026-05-07 16:57 -9.27888 -78.45772 37022 ft 472 kts 159°
2026-05-07 16:57 -9.33811 -78.42965 37020 ft 473 kts 159°
2026-05-07 16:58 -9.39746 -78.40075 37023 ft 473 kts 158°
2026-05-07 16:58 -9.45684 -78.37172 37064 ft 474 kts 159°
2026-05-07 16:59 -9.51627 -78.34279 37079 ft 474 kts 159°
2026-05-07 16:59 -9.57570 -78.31380 37079 ft 474 kts 159°
2026-05-07 17:00 -9.63513 -78.28484 37100 ft 475 kts 158°
2026-05-07 17:00 -9.69460 -78.25587 37089 ft 474 kts 159°
2026-05-07 17:01 -9.75408 -78.22694 37114 ft 474 kts 159°
2026-05-07 17:01 -9.81356 -78.19793 37096 ft 474 kts 158°
2026-05-07 17:02 -9.87304 -78.16890 37093 ft 474 kts 159°
2026-05-07 17:02 -9.93255 -78.13990 37080 ft 475 kts 159°
2026-05-07 17:03 -9.99168 -78.11104 37091 ft 475 kts 158°
2026-05-07 17:03 -10.05129 -78.08188 37111 ft 475 kts 158°
2026-05-07 17:04 -10.11091 -78.05276 37091 ft 476 kts 158°
2026-05-07 17:04 -10.17061 -78.02352 37092 ft 476 kts 158°
2026-05-07 17:05 -10.23032 -77.99431 36845 ft 476 kts 158°
2026-05-07 17:05 -10.26019 -77.97971 36596 ft 476 kts 158°
2026-05-07 17:05 -10.29001 -77.96515 36350 ft 476 kts 159°
2026-05-07 17:06 -10.31983 -77.95059 36134 ft 475 kts 158°
2026-05-07 17:06 -10.34962 -77.93606 35879 ft 475 kts 158°
2026-05-07 17:06 -10.37945 -77.92157 35641 ft 476 kts 158°
2026-05-07 17:06 -10.40933 -77.90706 35405 ft 476 kts 158°
2026-05-07 17:07 -10.43891 -77.89264 34683 ft 481 kts 158°
2026-05-07 17:07 -10.46925 -77.87782 33689 ft 487 kts 158°
2026-05-07 17:07 -10.49992 -77.86280 32666 ft 492 kts 157°
2026-05-07 17:07 -10.53093 -77.84759 31587 ft 498 kts 157°
2026-05-07 17:08 -10.56203 -77.83233 30574 ft 496 kts 157°
2026-05-07 17:08 -10.59341 -77.81694 29334 ft 504 kts 156°
2026-05-07 17:08 -10.62464 -77.80165 28163 ft 494 kts 156°
2026-05-07 17:08 -10.65506 -77.78674 27371 ft 478 kts 155°
2026-05-07 17:09 -10.68489 -77.77213 26572 ft 475 kts 155°
2026-05-07 17:09 -10.71463 -77.75760 25786 ft 472 kts 155°
2026-05-07 17:09 -10.74412 -77.74320 25013 ft 468 kts 154°
2026-05-07 17:09 -10.77340 -77.72888 24231 ft 465 kts 154°
2026-05-07 17:10 -10.80243 -77.71468 23467 ft 461 kts 153°
2026-05-07 17:10 -10.83121 -77.70056 22762 ft 455 kts 153°
2026-05-07 17:10 -10.85917 -77.68682 22053 ft 450 kts 153°
2026-05-07 17:10 -10.88721 -77.67306 21424 ft 443 kts 153°
2026-05-07 17:11 -10.91477 -77.65958 20770 ft 437 kts 153°
2026-05-07 17:11 -10.94209 -77.64621 20151 ft 432 kts 153°
2026-05-07 17:11 -10.96905 -77.63300 19538 ft 428 kts 153°
2026-05-07 17:11 -10.99562 -77.61994 19017 ft 421 kts 153°
2026-05-07 17:12 -11.02187 -77.60703 18441 ft 417 kts 153°
2026-05-07 17:12 -11.04782 -77.59429 17864 ft 412 kts 153°
2026-05-07 17:12 -11.07344 -77.58170 17320 ft 405 kts 153°
2026-05-07 17:12 -11.09864 -77.56931 16795 ft 400 kts 153°
2026-05-07 17:13 -11.12350 -77.55708 16436 ft 391 kts 153°
2026-05-07 17:13 -11.14756 -77.54526 16312 ft 377 kts 153°
2026-05-07 17:13 -11.17077 -77.53386 16189 ft 364 kts 153°
2026-05-07 17:13 -11.19316 -77.52287 16067 ft 352 kts 153°
2026-05-07 17:14 -11.21486 -77.51223 15958 ft 340 kts 153°
2026-05-07 17:14 -11.23586 -77.50196 15849 ft 330 kts 153°
2026-05-07 17:14 -11.25629 -77.49198 15670 ft 322 kts 153°
2026-05-07 17:14 -11.27649 -77.48231 15354 ft 320 kts 153°
2026-05-07 17:15 -11.29667 -77.47281 15021 ft 319 kts 154°
2026-05-07 17:15 -11.31685 -77.46338 14685 ft 318 kts 154°
2026-05-07 17:15 -11.33697 -77.45398 14328 ft 318 kts 154°
2026-05-07 17:15 -11.35678 -77.44473 14003 ft 317 kts 154°
2026-05-07 17:16 -11.37680 -77.43533 13581 ft 314 kts 154°
2026-05-07 17:16 -11.39663 -77.42602 12904 ft 313 kts 154°
2026-05-07 17:16 -11.41626 -77.41677 12295 ft 309 kts 154°
2026-05-07 17:16 -11.43566 -77.40762 11691 ft 306 kts 155°
2026-05-07 17:17 -11.45501 -77.39848 11173 ft 306 kts 155°
2026-05-07 17:17 -11.47427 -77.38939 10855 ft 304 kts 155°
2026-05-07 17:17 -11.49338 -77.38041 10514 ft 302 kts 155°
2026-05-07 17:17 -11.51227 -77.37153 10038 ft 296 kts 155°
2026-05-07 17:18 -11.52464 -77.36572 9607 ft 295 kts 155°
2026-05-07 17:18 -11.54327 -77.35693 9085 ft 294 kts 155°
2026-05-07 17:18 -11.56172 -77.34823 8721 ft 292 kts 155°
2026-05-07 17:18 -11.58012 -77.33953 8327 ft 290 kts 155°
2026-05-07 17:19 -11.60383 -77.32830 8129 ft 276 kts 155°
2026-05-07 17:19 -11.62090 -77.32019 7926 ft 267 kts 155°
2026-05-07 17:19 -11.63204 -77.31490 7722 ft 265 kts 155°
2026-05-07 17:19 -11.64868 -77.30701 7388 ft 263 kts 155°
2026-05-07 17:20 -11.66519 -77.29920 7037 ft 261 kts 155°
2026-05-07 17:20 -11.68163 -77.29145 6694 ft 259 kts 155°
2026-05-07 17:20 -11.69791 -77.28378 6406 ft 255 kts 155°
2026-05-07 17:20 -11.71386 -77.27626 5896 ft 251 kts 155°
2026-05-07 17:21 -11.72966 -77.26881 5318 ft 249 kts 155°
2026-05-07 17:21 -11.74535 -77.26141 4757 ft 248 kts 155°
2026-05-07 17:21 -11.76088 -77.25408 4335 ft 239 kts 155°
2026-05-07 17:21 -11.77538 -77.24724 4186 ft 222 kts 154°
2026-05-07 17:22 -11.78927 -77.24068 4094 ft 217 kts 154°
2026-05-07 17:22 -11.80283 -77.23427 3989 ft 213 kts 154°
2026-05-07 17:22 -11.81622 -77.22779 3750 ft 212 kts 154°
2026-05-07 17:22 -11.82972 -77.22111 3519 ft 220 kts 154°
2026-05-07 17:23 -11.84340 -77.21432 3298 ft 222 kts 154°
2026-05-07 17:23 -11.85721 -77.20747 3076 ft 219 kts 154°
2026-05-07 17:23 -11.87061 -77.20085 2984 ft 210 kts 154°
2026-05-07 17:23 -11.88346 -77.19452 2787 ft 198 kts 154°
2026-05-07 17:24 -11.89560 -77.18853 2527 ft 191 kts 154°
2026-05-07 17:24 -11.90745 -77.18269 2287 ft 188 kts 155°
2026-05-07 17:24 -11.91917 -77.17692 2043 ft 186 kts 155°
2026-05-07 17:24 -11.93056 -77.17130 1808 ft 177 kts 156°
2026-05-07 17:25 -11.94130 -77.16599 1590 ft 166 kts 157°
2026-05-07 17:25 -11.95151 -77.16097 1368 ft 160 kts 156°
2026-05-07 17:25 -11.96140 -77.15609 1170 ft 155 kts 158°
2026-05-07 17:25 -11.97107 -77.15133 961 ft 154 kts 157°
2026-05-07 17:26 -11.98068 -77.14659 756 ft 153 kts 157°
2026-05-07 17:26 -11.99033 -77.14184 551 ft 154 kts 158°
2026-05-07 17:26 -11.99991 -77.13712 334 ft 151 kts 157°
2026-05-07 17:26 -12.00922 -77.13251 143 ft 147 kts 157°
2026-05-07 17:27 -12.01821 -77.12808 42 ft 133 kts 154°
2026-05-07 17:27 -12.02467 -77.12487 48 ft 52 kts 154°
2026-05-07 17:27 -12.02668 -77.12363 52 ft 27 kts 138°
2026-05-07 17:27 -12.02772 -77.12231 58 ft 13 kts 123°
2026-05-07 17:28 -12.02822 -77.12157 58 ft 15 kts 126°
2026-05-07 17:28 -12.02907 -77.12097 61 ft 17 kts 155°
2026-05-07 17:28 -12.03032 -77.12036 61 ft 21 kts 155°
2026-05-07 17:28 -12.03164 -77.11971 66 ft 13 kts 151°
2026-05-07 17:29 -12.03165 -77.11916 66 ft 6 kts 51°
2026-05-07 17:29 -12.03150 -77.11903 66 ft 0 kts 41°
2026-05-07 17:29 -12.03147 -77.11899 71 ft 4 kts 41°
2026-05-07 17:29 -12.03137 -77.11886 68 ft 0 kts 57°
2026-05-07 17:30 -12.03126 -77.11865 84 ft 5 kts 66°
2026-05-07 17:30 -12.03120 -77.11852 82 ft 0 kts 65°